Location: Nelson
(41.2830°S, 173.2830°E)
Time: 15:12:45
(UTC+12:00)

H-2A R/B - Pass Details

Date: 14 May 2021
Orbit: 734 x 836 km, 98.2° (Epoch: 19 June)

Event Time Altitude Azimuth Distance (km) Brightness Sun altitude
Exits shadow 19:00:06 10° 36° (NE) 2,256 4.2 -19.0°
Drops below altitude 10° 19:00:14 10° 35° (NE) 2,297 4.2 -19.0°
Sets 19:02:51 0° 21° (NNE) 3,170 5.1 -19.5°
